Voltar ao catálogo

USA 555

AtivoMilitarVLEO
NORAD 65271·PAYLOAD·🇺🇸 United States

Lançado Aug 22, 2025 de Cape Canaveral Space Force Station

Loading…

Próximas Passagens (próximas 24 horas)

TLE

ObsoletoSource: Mike McCants

Época: Aug 24, 2026, 20:18 UTC

1 65271U 25183A   26236.84616148 0.00000000  00000-0  00000-0 0    00
2 65271  49.5101 145.6446 0013166 245.6147 114.3850 15.58427510    09

Acompanhe USA 555 em tempo real com AllMySat

Download on the App Store